Regional Weather Roundup
Issued by NWS

Home | Current Version | Previous Version | Graphics & Text | Print | Product List | Glossary On
Versions: 1 2 3 4 5 6 7 8 9 10 11 12 13 14 15 16 17 18 19 20 21 22 23 24 25 26 27 28 29 30 31 32 33 34 35 36 37 38 39 40 41 42 43 44 45 46 47 48 49 50
000
ASUS43 KLSX 200807
RWRMO

WEATHER SUMMARY FOR MISSOURI
NATIONAL WEATHER SERVICE SPRINGFIELD MO
200 AM CST SAT JAN 20 2018

NOTE: "FAIR" INDICATES FEW OR NO CLOUDS BELOW 12,000 FEET WITH NO
       SIGNIFICANT WEATHER AND/OR OBSTRUCTIONS TO VISIBILITY.
       CURRENT SKY AND/OR WEATHER CONDITIONS ARE NOT AVAILABLE FOR
       CHILLICOTHE AND FARMINGTON.

MOZ001>031-035>038-043-044-053-054-200900-
...NORTHERN AND WESTERN MISSOURI...

CITY           SKY/WX    TMP DP  RH WIND       PRES   REMARKS
KANSAS CTY INT CLOUDY    42  35  76 SW16      29.83S
KANSAS C DTWN  CLOUDY    43  35  73 SW8       29.85S
LEE`S SUMMIT   CLOUDY    40  35  83 S13       29.86S
ST JOSEPH      CLOUDY    37  30  75 S5        29.83S
CHILLICOTHE      N/A     37  29  72 S8        29.86R
KIRKSVILLE     CLOUDY    41  31  67 SW14      29.86R

$$
MOZ066>068-077>081-088>096-101>105-200900-
...SOUTHWEST MISSOURI...

CITY           SKY/WX    TMP DP  RH WIND       PRES   REMARKS
SPRINGFIELD    CLOUDY    47  42  83 SW15      29.94F
JOPLIN         CLOUDY    48  43  82 S17G29    29.93F
BRANSON        CLOUDY    46  37  71 S7        30.00R

$$
MOZ032>034-039>042-045>050-055>058-069>072-200900-
...CENTRAL MISSOURI...

CITY           SKY/WX    TMP DP  RH WIND       PRES   REMARKS
COLUMBIA       CLOUDY    37  28  70 S8        29.92S
JEFFERSON CITY CLOUDY    41  30  65 E3        29.95R
ROLLA          CLOUDY    37  31  78 S13       29.96R WCI  29
SEDALIA        CLOUDY    44  37  76 SW15      29.91S
WHITEMAN AFB   PTCLDY    41  35  77 SW18      29.85S
WARRENSBURG    CLOUDY    39  34  81 S8        29.89S
OSAGE BEACH    CLOUDY    43  36  76 SW9       29.95S

$$
MOZ051-052-059>065-200900-
...EAST CENTRAL MISSOURI...

CITY           SKY/WX    TMP DP  RH WIND       PRES   REMARKS
ST LOUIS INTL  CLOUDY    38  28  67 SW5       29.97R
SPIRIT OF STL  CLOUDY    41  30  65 SW9       29.96R
ST CHARLES     CLOUDY    26  23  88 SE5       29.97R WCI  20

$$
MOZ072>076-082>087-097>100-106>115-200900-
...SOUTH CENTRAL AND SOUTHEAST MISSOURI...

CITY           SKY/WX    TMP DP  RH WIND       PRES   REMARKS
CAPE GIRARDEAU FAIR      32  24  72 S9        30.08R WCI  24
FARMINGTON     CLOUDY    34  23  64 S7        30.01R WCI  28
POPLAR BLUFF   FAIR      34  27  75 SW10      30.07F WCI  26
WEST PLAINS    CLOUDY    37  27  67 S7        30.01F

$$



USA.gov is the U.S. government's official web portal to all federal, state and local government web resources and services.